owner,sensor,date,latitude,longitude,sea_surface_height_above_sea_level,qcFlag 
TCOON,ioos:station:TCOON:013:1,2017-03-01T12:48:00Z,27.4847,-97.3181,0.715,1111122 
TCOON,ioos:station:TCOON:013:1,2017-03-02T02:54:00Z,27.4847,-97.3181,0.687,1111122 
TCOON,ioos:station:TCOON:013:1,2017-03-02T08:48:00Z,27.4847,-97.3181,0.67,1111122 
TCOON,ioos:station:TCOON:013:1,2017-03-02T09:18:00Z,27.4847,-97.3181,0.668,1111122 
TCOON,ioos:station:TCOON:013:1,2017-03-02T10:18:00Z,27.4847,-97.3181,0.657,1111122 
TCOON,ioos:station:TCOON:013:1,2017-03-02T11:18:00Z,27.4847,-97.3181,0.652,1111122 
TCOON,ioos:station:TCOON:013:1,2017-03-02T12:12:00Z,27.4847,-97.3181,0.641,1111122 
TCOON,ioos:station:TCOON:013:1,2017-03-02T13:18:00Z,27.4847,-97.3181,0.64,1111122 
TCOON,ioos:station:TCOON:013:1,2017-03-02T14:18:00Z,27.4847,-97.3181,0.643,1111122 
TCOON,ioos:station:TCOON:013:1,2017-03-02T15:18:00Z,27.4847,-97.3181,0.635,1111122 
TCOON,ioos:station:TCOON:013:1,2017-03-02T16:18:00Z,27.4847,-97.3181,0.638,1111122 
TCOON,ioos:station:TCOON:013:1,2017-03-02T17:18:00Z,27.4847,-97.3181,0.635,1111122 
TCOON,ioos:station:TCOON:013:1,2017-03-02T18:18:00Z,27.4847,-97.3181,0.639,1111122 
TCOON,ioos:station:TCOON:013:1,2017-03-02T19:18:00Z,27.4847,-97.3181,0.639,1111122 
TCOON,ioos:station:TCOON:013:1,2017-03-02T20:18:00Z,27.4847,-97.3181,0.635,1111122 
TCOON,ioos:station:TCOON:013:1,2017-03-02T21:18:00Z,27.4847,-97.3181,0.638,1111122 
TCOON,ioos:station:TCOON:013:1,2017-03-02T22:18:00Z,27.4847,-97.3181,0.641,1111122 
TCOON,ioos:station:TCOON:013:1,2017-03-02T23:18:00Z,27.4847,-97.3181,0.649,1111122 
TCOON,ioos:station:TCOON:013:1,2017-03-03T00:18:00Z,27.4847,-97.3181,0.654,1111122 
TCOON,ioos:station:TCOON:013:1,2017-03-03T01:18:00Z,27.4847,-97.3181,0.661,1111122 
TCOON,ioos:station:TCOON:013:1,2017-03-03T02:18:00Z,27.4847,-97.3181,0.666,1111122 
TCOON,ioos:station:TCOON:013:1,2017-03-03T03:30:00Z,27.4847,-97.3181,0.677,1111122 
TCOON,ioos:station:TCOON:013:1,2017-03-03T07:42:00Z,27.4847,-97.3181,0.707,1111122 
TCOON,ioos:station:TCOON:013:1,2017-03-03T08:54:00Z,27.4847,-97.3181,0.714,1111122 
TCOON,ioos:station:TCOON:013:1,2017-03-03T09:18:00Z,27.4847,-97.3181,0.716,1111122 
TCOON,ioos:station:TCOON:013:1,2017-03-03T10:18:00Z,27.4847,-97.3181,0.717,1111122 
TCOON,ioos:station:TCOON:013:1,2017-03-03T21:48:00Z,27.4847,-97.3181,0.736,1111122 
TCOON,ioos:station:TCOON:013:1,2017-03-04T02:18:00Z,27.4847,-97.3181,0.759,1111122 
TCOON,ioos:station:TCOON:013:1,2017-03-04T03:18:00Z,27.4847,-97.3181,0.765,1111122 
TCOON,ioos:station:TCOON:013:1,2017-03-04T04:18:00Z,27.4847,-97.3181,0.776,1111122 
TCOON,ioos:station:TCOON:013:1,2017-03-04T05:18:00Z,27.4847,-97.3181,0.785,1111122 
TCOON,ioos:station:TCOON:013:1,2017-03-04T06:18:00Z,27.4847,-97.3181,0.794,1111122 
TCOON,ioos:station:TCOON:013:1,2017-03-04T07:18:00Z,27.4847,-97.3181,0.803,1111122 
TCOON,ioos:station:TCOON:013:1,2017-03-04T08:18:00Z,27.4847,-97.3181,0.811,1111122 
TCOON,ioos:station:TCOON:013:1,2017-03-04T09:18:00Z,27.4847,-97.3181,0.819,1111122 
TCOON,ioos:station:TCOON:013:1,2017-03-04T10:18:00Z,27.4847,-97.3181,0.817,1111122 
TCOON,ioos:station:TCOON:013:1,2017-03-04T11:18:00Z,27.4847,-97.3181,0.815,1111122 
TCOON,ioos:station:TCOON:013:1,2017-03-04T12:18:00Z,27.4847,-97.3181,0.808,1111122 
TCOON,ioos:station:TCOON:013:1,2017-03-04T13:18:00Z,27.4847,-97.3181,0.8,1111122 
TCOON,ioos:station:TCOON:013:1,2017-03-04T14:18:00Z,27.4847,-97.3181,0.799,1111122 
TCOON,ioos:station:TCOON:013:1,2017-03-04T15:18:00Z,27.4847,-97.3181,0.799,1111122 
TCOON,ioos:station:TCOON:013:1,2017-03-04T16:18:00Z,27.4847,-97.3181,0.796,1111122 
TCOON,ioos:station:TCOON:013:1,2017-03-04T17:18:00Z,27.4847,-97.3181,0.799,1111122 
TCOON,ioos:station:TCOON:013:1,2017-03-04T18:24:00Z,27.4847,-97.3181,0.798,1111122 
TCOON,ioos:station:TCOON:013:1,2017-03-04T19:18:00Z,27.4847,-97.3181,0.805,1111122 
TCOON,ioos:station:TCOON:013:1,2017-03-04T20:24:00Z,27.4847,-97.3181,0.811,1111122 
TCOON,ioos:station:TCOON:013:1,2017-03-04T21:18:00Z,27.4847,-97.3181,0.815,1111122 
TCOON,ioos:station:TCOON:013:1,2017-03-04T22:18:00Z,27.4847,-97.3181,0.822,1111122 
TCOON,ioos:station:TCOON:013:1,2017-03-04T23:18:00Z,27.4847,-97.3181,0.825,1111122 
TCOON,ioos:station:TCOON:013:1,2017-03-05T00:18:00Z,27.4847,-97.3181,0.835,1111122 
TCOON,ioos:station:TCOON:013:1,2017-03-05T01:18:00Z,27.4847,-97.3181,0.882,1111122 
TCOON,ioos:station:TCOON:013:1,2017-03-05T02:18:00Z,27.4847,-97.3181,0.873,1111122 
TCOON,ioos:station:TCOON:013:1,2017-03-05T03:18:00Z,27.4847,-97.3181,0.91,1111122 
TCOON,ioos:station:TCOON:013:1,2017-03-05T04:18:00Z,27.4847,-97.3181,0.911,1111122 
TCOON,ioos:station:TCOON:013:1,2017-03-05T05:18:00Z,27.4847,-97.3181,0.907,1111122 
TCOON,ioos:station:TCOON:013:1,2017-03-05T06:24:00Z,27.4847,-97.3181,0.902,1111122 
TCOON,ioos:station:TCOON:013:1,2017-03-05T07:18:00Z,27.4847,-97.3181,0.901,1111122 
TCOON,ioos:station:TCOON:013:1,2017-03-05T08:18:00Z,27.4847,-97.3181,0.9,1111122 
TCOON,ioos:station:TCOON:013:1,2017-03-05T09:18:00Z,27.4847,-97.3181,0.896,1111122 
TCOON,ioos:station:TCOON:013:1,2017-03-05T10:18:00Z,27.4847,-97.3181,0.893,1111122 
TCOON,ioos:station:TCOON:013:1,2017-03-05T11:18:00Z,27.4847,-97.3181,0.888,1111122 
TCOON,ioos:station:TCOON:013:1,2017-03-05T12:18:00Z,27.4847,-97.3181,0.884,1111122 
TCOON,ioos:station:TCOON:013:1,2017-03-05T13:18:00Z,27.4847,-97.3181,0.883,1111122 
TCOON,ioos:station:TCOON:013:1,2017-03-05T14:18:00Z,27.4847,-97.3181,0.88,1111122 
TCOON,ioos:station:TCOON:013:1,2017-03-05T15:18:00Z,27.4847,-97.3181,0.874,1111122 
TCOON,ioos:station:TCOON:013:1,2017-03-05T16:18:00Z,27.4847,-97.3181,0.873,1111122 
TCOON,ioos:station:TCOON:013:1,2017-03-05T17:18:00Z,27.4847,-97.3181,0.87,1111122 
TCOON,ioos:station:TCOON:013:1,2017-03-05T18:18:00Z,27.4847,-97.3181,0.875,1111122 
TCOON,ioos:station:TCOON:013:1,2017-03-05T19:18:00Z,27.4847,-97.3181,0.88,1111122 
TCOON,ioos:station:TCOON:013:1,2017-03-05T20:18:00Z,27.4847,-97.3181,0.887,1111122 
TCOON,ioos:station:TCOON:013:1,2017-03-05T21:18:00Z,27.4847,-97.3181,0.895,1111122 
TCOON,ioos:station:TCOON:013:1,2017-03-05T22:18:00Z,27.4847,-97.3181,0.902,1111122 
TCOON,ioos:station:TCOON:013:1,2017-03-05T23:18:00Z,27.4847,-97.3181,0.911,1111122 
TCOON,ioos:station:TCOON:013:1,2017-03-06T00:18:00Z,27.4847,-97.3181,0.914,1111122 
TCOON,ioos:station:TCOON:013:1,2017-03-06T01:18:00Z,27.4847,-97.3181,0.914,1111122 
TCOON,ioos:station:TCOON:013:1,2017-03-06T02:18:00Z,27.4847,-97.3181,0.915,1111122 
TCOON,ioos:station:TCOON:013:1,2017-03-06T03:18:00Z,27.4847,-97.3181,0.924,1111122 
TCOON,ioos:station:TCOON:013:1,2017-03-06T04:18:00Z,27.4847,-97.3181,0.917,1111122 
TCOON,ioos:station:TCOON:013:1,2017-03-06T05:18:00Z,27.4847,-97.3181,0.918,1111122 
TCOON,ioos:station:TCOON:013:1,2017-03-06T06:18:00Z,27.4847,-97.3181,0.913,1111122 
TCOON,ioos:station:TCOON:013:1,2017-03-06T07:18:00Z,27.4847,-97.3181,0.916,1111122 
TCOON,ioos:station:TCOON:013:1,2017-03-06T08:18:00Z,27.4847,-97.3181,0.912,1111122 
TCOON,ioos:station:TCOON:013:1,2017-03-06T09:18:00Z,27.4847,-97.3181,0.903,1111122 
TCOON,ioos:station:TCOON:013:1,2017-03-06T10:18:00Z,27.4847,-97.3181,0.898,1111122 
TCOON,ioos:station:TCOON:013:1,2017-03-06T11:18:00Z,27.4847,-97.3181,0.892,1111122 
TCOON,ioos:station:TCOON:013:1,2017-03-06T12:18:00Z,27.4847,-97.3181,0.884,1111122 
TCOON,ioos:station:TCOON:013:1,2017-03-06T13:18:00Z,27.4847,-97.3181,0.877,1111122 
TCOON,ioos:station:TCOON:013:1,2017-03-06T14:18:00Z,27.4847,-97.3181,0.872,1111122 
TCOON,ioos:station:TCOON:013:1,2017-03-06T15:18:00Z,27.4847,-97.3181,0.868,1111122 
TCOON,ioos:station:TCOON:013:1,2017-03-06T16:18:00Z,27.4847,-97.3181,0.864,1111122 
TCOON,ioos:station:TCOON:013:1,2017-03-06T17:18:00Z,27.4847,-97.3181,0.864,1111122 
TCOON,ioos:station:TCOON:013:1,2017-03-06T18:18:00Z,27.4847,-97.3181,0.859,1111122 
TCOON,ioos:station:TCOON:013:1,2017-03-06T19:18:00Z,27.4847,-97.3181,0.855,1111122 
TCOON,ioos:station:TCOON:013:1,2017-03-06T20:18:00Z,27.4847,-97.3181,0.853,1111122 
TCOON,ioos:station:TCOON:013:1,2017-03-06T21:18:00Z,27.4847,-97.3181,0.848,1111122 
TCOON,ioos:station:TCOON:013:1,2017-03-06T22:18:00Z,27.4847,-97.3181,0.845,1111122 
TCOON,ioos:station:TCOON:013:1,2017-03-06T23:18:00Z,27.4847,-97.3181,0.843,1111122 
TCOON,ioos:station:TCOON:013:1,2017-03-07T00:18:00Z,27.4847,-97.3181,0.846,1111122 
TCOON,ioos:station:TCOON:013:1,2017-03-07T01:18:00Z,27.4847,-97.3181,0.842,1111122 
TCOON,ioos:station:TCOON:013:1,2017-03-07T02:18:00Z,27.4847,-97.3181,0.843,1111122 
TCOON,ioos:station:TCOON:013:1,2017-03-07T03:18:00Z,27.4847,-97.3181,0.855,1111122 
TCOON,ioos:station:TCOON:013:1,2017-03-07T04:18:00Z,27.4847,-97.3181,0.864,1111122 
TCOON,ioos:station:TCOON:013:1,2017-03-07T05:18:00Z,27.4847,-97.3181,0.872,1111122 
TCOON,ioos:station:TCOON:013:1,2017-03-07T06:18:00Z,27.4847,-97.3181,0.876,1111122 
TCOON,ioos:station:TCOON:013:1,2017-03-07T07:18:00Z,27.4847,-97.3181,0.882,1111122 
TCOON,ioos:station:TCOON:013:1,2017-03-07T08:18:00Z,27.4847,-97.3181,0.884,1111122 
TCOON,ioos:station:TCOON:013:1,2017-03-07T09:18:00Z,27.4847,-97.3181,0.887,1111122 
TCOON,ioos:station:TCOON:013:1,2017-03-07T10:18:00Z,27.4847,-97.3181,0.89,1111122 
TCOON,ioos:station:TCOON:013:1,2017-03-07T11:18:00Z,27.4847,-97.3181,0.889,1111122 
TCOON,ioos:station:TCOON:013:1,2017-03-07T12:18:00Z,27.4847,-97.3181,0.887,1111122 
TCOON,ioos:station:TCOON:013:1,2017-03-07T13:18:00Z,27.4847,-97.3181,0.877,1111122 
TCOON,ioos:station:TCOON:013:1,2017-03-07T14:18:00Z,27.4847,-97.3181,0.849,1111122 
TCOON,ioos:station:TCOON:013:1,2017-03-07T15:18:00Z,27.4847,-97.3181,0.851,1111122 
TCOON,ioos:station:TCOON:013:1,2017-03-07T16:18:00Z,27.4847,-97.3181,0.841,1111122 
TCOON,ioos:station:TCOON:013:1,2017-03-07T17:18:00Z,27.4847,-97.3181,0.836,1111122 
TCOON,ioos:station:TCOON:013:1,2017-03-07T18:24:00Z,27.4847,-97.3181,0.837,1111122 
TCOON,ioos:station:TCOON:013:1,2017-03-07T19:24:00Z,27.4847,-97.3181,0.832,1111122 
TCOON,ioos:station:TCOON:013:1,2017-03-07T20:18:00Z,27.4847,-97.3181,0.834,1111122 
TCOON,ioos:station:TCOON:013:1,2017-03-07T21:18:00Z,27.4847,-97.3181,0.834,1111122 
TCOON,ioos:station:TCOON:013:1,2017-03-07T22:18:00Z,27.4847,-97.3181,0.837,1111122 
TCOON,ioos:station:TCOON:013:1,2017-03-08T00:18:00Z,27.4847,-97.3181,0.847,1111122 
TCOON,ioos:station:TCOON:013:1,2017-03-08T01:18:00Z,27.4847,-97.3181,0.848,1111122 
TCOON,ioos:station:TCOON:013:1,2017-03-08T02:18:00Z,27.4847,-97.3181,0.856,1111122 
TCOON,ioos:station:TCOON:013:1,2017-03-08T03:18:00Z,27.4847,-97.3181,0.859,1111122 
TCOON,ioos:station:TCOON:013:1,2017-03-08T04:18:00Z,27.4847,-97.3181,0.86,1111122 
TCOON,ioos:station:TCOON:013:1,2017-03-08T05:18:00Z,27.4847,-97.3181,0.867,1111122 
TCOON,ioos:station:TCOON:013:1,2017-03-08T06:18:00Z,27.4847,-97.3181,0.872,1111122 
TCOON,ioos:station:TCOON:013:1,2017-03-08T07:18:00Z,27.4847,-97.3181,0.869,1111122 
TCOON,ioos:station:TCOON:013:1,2017-03-08T08:18:00Z,27.4847,-97.3181,0.873,1111122 
TCOON,ioos:station:TCOON:013:1,2017-03-08T09:18:00Z,27.4847,-97.3181,0.872,1111122 
TCOON,ioos:station:TCOON:013:1,2017-03-08T10:18:00Z,27.4847,-97.3181,0.868,1111122 
TCOON,ioos:station:TCOON:013:1,2017-03-08T11:18:00Z,27.4847,-97.3181,0.864,1111122 
TCOON,ioos:station:TCOON:013:1,2017-03-08T12:18:00Z,27.4847,-97.3181,0.86,1111122 
TCOON,ioos:station:TCOON:013:1,2017-03-08T13:18:00Z,27.4847,-97.3181,0.851,1111122 
TCOON,ioos:station:TCOON:013:1,2017-03-08T14:18:00Z,27.4847,-97.3181,0.841,1111122 
TCOON,ioos:station:TCOON:013:1,2017-03-08T15:18:00Z,27.4847,-97.3181,0.832,1111122 
TCOON,ioos:station:TCOON:013:1,2017-03-08T16:18:00Z,27.4847,-97.3181,0.823,1111122 
TCOON,ioos:station:TCOON:013:1,2017-03-08T17:30:00Z,27.4847,-97.3181,0.814,1111122 
TCOON,ioos:station:TCOON:013:1,2017-03-08T18:42:00Z,27.4847,-97.3181,0.807,1111122 
TCOON,ioos:station:TCOON:013:1,2017-03-08T20:18:00Z,27.4847,-97.3181,0.802,1111122 
TCOON,ioos:station:TCOON:013:1,2017-03-08T21:18:00Z,27.4847,-97.3181,0.807,1111122 
TCOON,ioos:station:TCOON:013:1,2017-03-08T22:18:00Z,27.4847,-97.3181,0.824,1111122 
TCOON,ioos:station:TCOON:013:1,2017-03-08T23:18:00Z,27.4847,-97.3181,0.833,1111122 
TCOON,ioos:station:TCOON:013:1,2017-03-09T00:18:00Z,27.4847,-97.3181,0.84,1111122 
TCOON,ioos:station:TCOON:013:1,2017-03-09T01:18:00Z,27.4847,-97.3181,0.837,1111122 
TCOON,ioos:station:TCOON:013:1,2017-03-09T02:18:00Z,27.4847,-97.3181,0.832,1111122 
TCOON,ioos:station:TCOON:013:1,2017-03-09T03:18:00Z,27.4847,-97.3181,0.861,1111122 
TCOON,ioos:station:TCOON:013:1,2017-03-09T04:18:00Z,27.4847,-97.3181,0.875,1111122 
TCOON,ioos:station:TCOON:013:1,2017-03-09T05:18:00Z,27.4847,-97.3181,0.884,1111122 
TCOON,ioos:station:TCOON:013:1,2017-03-09T06:18:00Z,27.4847,-97.3181,0.89,1111122 
TCOON,ioos:station:TCOON:013:1,2017-03-09T07:18:00Z,27.4847,-97.3181,0.894,1111122 
TCOON,ioos:station:TCOON:013:1,2017-03-09T08:18:00Z,27.4847,-97.3181,0.894,1111122 
TCOON,ioos:station:TCOON:013:1,2017-03-09T09:18:00Z,27.4847,-97.3181,0.896,1111122 
TCOON,ioos:station:TCOON:013:1,2017-03-09T10:18:00Z,27.4847,-97.3181,0.895,1111122 
TCOON,ioos:station:TCOON:013:1,2017-03-09T11:18:00Z,27.4847,-97.3181,0.893,1111122 
TCOON,ioos:station:TCOON:013:1,2017-03-09T12:18:00Z,27.4847,-97.3181,0.888,1111122 
TCOON,ioos:station:TCOON:013:1,2017-03-09T13:18:00Z,27.4847,-97.3181,0.885,1111122 
TCOON,ioos:station:TCOON:013:1,2017-03-09T14:18:00Z,27.4847,-97.3181,0.876,1111122 
TCOON,ioos:station:TCOON:013:1,2017-03-09T15:18:00Z,27.4847,-97.3181,0.867,1111122 
TCOON,ioos:station:TCOON:013:1,2017-03-09T16:18:00Z,27.4847,-97.3181,0.867,1111122 
TCOON,ioos:station:TCOON:013:1,2017-03-09T17:18:00Z,27.4847,-97.3181,0.867,1111122 
TCOON,ioos:station:TCOON:013:1,2017-03-09T18:18:00Z,27.4847,-97.3181,0.865,1111122 
TCOON,ioos:station:TCOON:013:1,2017-03-09T19:18:00Z,27.4847,-97.3181,0.859,1111122 
TCOON,ioos:station:TCOON:013:1,2017-03-09T20:18:00Z,27.4847,-97.3181,0.86,1111122 
TCOON,ioos:station:TCOON:013:1,2017-03-09T21:18:00Z,27.4847,-97.3181,0.848,1111122 
TCOON,ioos:station:TCOON:013:1,2017-03-09T22:18:00Z,27.4847,-97.3181,0.851,1111122 
TCOON,ioos:station:TCOON:013:1,2017-03-09T23:18:00Z,27.4847,-97.3181,0.85,1111122 
TCOON,ioos:station:TCOON:013:1,2017-03-10T00:18:00Z,27.4847,-97.3181,0.853,1111122 
TCOON,ioos:station:TCOON:013:1,2017-03-10T01:18:00Z,27.4847,-97.3181,0.844,1111122 
TCOON,ioos:station:TCOON:013:1,2017-03-10T02:18:00Z,27.4847,-97.3181,0.86,1111122 
TCOON,ioos:station:TCOON:013:1,2017-03-10T03:18:00Z,27.4847,-97.3181,0.871,1111122 
TCOON,ioos:station:TCOON:013:1,2017-03-10T04:24:00Z,27.4847,-97.3181,0.874,1111122 
TCOON,ioos:station:TCOON:013:1,2017-03-10T05:18:00Z,27.4847,-97.3181,0.877,1111122 
TCOON,ioos:station:TCOON:013:1,2017-03-10T07:00:00Z,27.4847,-97.3181,0.874,1111122 
TCOON,ioos:station:TCOON:013:1,2017-03-10T07:18:00Z,27.4847,-97.3181,0.874,1111122 
TCOON,ioos:station:TCOON:013:1,2017-03-10T08:18:00Z,27.4847,-97.3181,0.872,1111122 
TCOON,ioos:station:TCOON:013:1,2017-03-10T09:18:00Z,27.4847,-97.3181,0.872,1111122 
TCOON,ioos:station:TCOON:013:1,2017-03-10T10:18:00Z,27.4847,-97.3181,0.866,1111122 
TCOON,ioos:station:TCOON:013:1,2017-03-10T11:18:00Z,27.4847,-97.3181,0.863,1111122 
TCOON,ioos:station:TCOON:013:1,2017-03-10T12:18:00Z,27.4847,-97.3181,0.86,1111122 
TCOON,ioos:station:TCOON:013:1,2017-03-10T13:18:00Z,27.4847,-97.3181,0.854,1111122 
TCOON,ioos:station:TCOON:013:1,2017-03-10T14:18:00Z,27.4847,-97.3181,0.842,1111122 
TCOON,ioos:station:TCOON:013:1,2017-03-10T15:18:00Z,27.4847,-97.3181,0.837,1111122 
TCOON,ioos:station:TCOON:013:1,2017-03-10T16:18:00Z,27.4847,-97.3181,0.836,1111122 
TCOON,ioos:station:TCOON:013:1,2017-03-10T17:18:00Z,27.4847,-97.3181,0.844,1111122 
TCOON,ioos:station:TCOON:013:1,2017-03-10T18:18:00Z,27.4847,-97.3181,0.821,1111122 
TCOON,ioos:station:TCOON:013:1,2017-03-10T21:18:00Z,27.4847,-97.3181,0.795,1111122 
TCOON,ioos:station:TCOON:013:1,2017-03-10T23:00:00Z,27.4847,-97.3181,0.778,1111122 
TCOON,ioos:station:TCOON:013:1,2017-03-10T23:18:00Z,27.4847,-97.3181,0.776,1111122 
TCOON,ioos:station:TCOON:013:1,2017-03-11T00:18:00Z,27.4847,-97.3181,0.775,1111122 
TCOON,ioos:station:TCOON:013:1,2017-03-11T01:18:00Z,27.4847,-97.3181,0.778,1111122 
TCOON,ioos:station:TCOON:013:1,2017-03-11T02:18:00Z,27.4847,-97.3181,0.782,1111122 
TCOON,ioos:station:TCOON:013:1,2017-03-11T04:06:00Z,27.4847,-97.3181,0.805,1111122 
TCOON,ioos:station:TCOON:013:1,2017-03-11T05:18:00Z,27.4847,-97.3181,0.815,1111122 
TCOON,ioos:station:TCOON:013:1,2017-03-11T06:18:00Z,27.4847,-97.3181,0.826,1111122 
TCOON,ioos:station:TCOON:013:1,2017-03-11T07:18:00Z,27.4847,-97.3181,0.832,1111122 
TCOON,ioos:station:TCOON:013:1,2017-03-11T08:18:00Z,27.4847,-97.3181,0.842,1111122 
TCOON,ioos:station:TCOON:013:1,2017-03-11T09:18:00Z,27.4847,-97.3181,0.848,1111122 
TCOON,ioos:station:TCOON:013:1,2017-03-11T10:18:00Z,27.4847,-97.3181,0.847,1111122 
TCOON,ioos:station:TCOON:013:1,2017-03-11T11:18:00Z,27.4847,-97.3181,0.857,1111122 
TCOON,ioos:station:TCOON:013:1,2017-03-11T12:18:00Z,27.4847,-97.3181,0.867,1111122 
TCOON,ioos:station:TCOON:013:1,2017-03-11T13:18:00Z,27.4847,-97.3181,0.92,1111122 
TCOON,ioos:station:TCOON:013:1,2017-03-11T14:18:00Z,27.4847,-97.3181,0.912,1111122 
TCOON,ioos:station:TCOON:013:1,2017-03-11T15:18:00Z,27.4847,-97.3181,0.901,1111122 
TCOON,ioos:station:TCOON:013:1,2017-03-11T16:18:00Z,27.4847,-97.3181,0.895,1111122 
TCOON,ioos:station:TCOON:013:1,2017-03-11T17:18:00Z,27.4847,-97.3181,0.875,1111122 
TCOON,ioos:station:TCOON:013:1,2017-03-11T18:18:00Z,27.4847,-97.3181,0.858,1111122 
TCOON,ioos:station:TCOON:013:1,2017-03-11T19:18:00Z,27.4847,-97.3181,0.85,1111122 
TCOON,ioos:station:TCOON:013:1,2017-03-11T20:18:00Z,27.4847,-97.3181,0.852,1111122 
TCOON,ioos:station:TCOON:013:1,2017-03-11T21:18:00Z,27.4847,-97.3181,0.85,1111122 
TCOON,ioos:station:TCOON:013:1,2017-03-11T22:18:00Z,27.4847,-97.3181,0.855,1111122 
TCOON,ioos:station:TCOON:013:1,2017-03-11T23:18:00Z,27.4847,-97.3181,0.846,1111122 
TCOON,ioos:station:TCOON:013:1,2017-03-12T00:18:00Z,27.4847,-97.3181,0.845,1111122 
TCOON,ioos:station:TCOON:013:1,2017-03-12T01:18:00Z,27.4847,-97.3181,0.841,1111122 
TCOON,ioos:station:TCOON:013:1,2017-03-12T02:18:00Z,27.4847,-97.3181,0.836,1111122 
TCOON,ioos:station:TCOON:013:1,2017-03-12T03:18:00Z,27.4847,-97.3181,0.834,1111122 
TCOON,ioos:station:TCOON:013:1,2017-03-12T04:18:00Z,27.4847,-97.3181,0.838,1111122 
TCOON,ioos:station:TCOON:013:1,2017-03-12T05:18:00Z,27.4847,-97.3181,0.84,1111122 
TCOON,ioos:station:TCOON:013:1,2017-03-12T06:18:00Z,27.4847,-97.3181,0.855,1111122 
TCOON,ioos:station:TCOON:013:1,2017-03-12T07:18:00Z,27.4847,-97.3181,0.86,1111122 
TCOON,ioos:station:TCOON:013:1,2017-03-12T08:18:00Z,27.4847,-97.3181,0.855,1111122 
TCOON,ioos:station:TCOON:013:1,2017-03-12T09:18:00Z,27.4847,-97.3181,0.858,1111122 
TCOON,ioos:station:TCOON:013:1,2017-03-12T10:18:00Z,27.4847,-97.3181,0.857,1111122 
TCOON,ioos:station:TCOON:013:1,2017-03-12T11:18:00Z,27.4847,-97.3181,0.863,1111122 
TCOON,ioos:station:TCOON:013:1,2017-03-12T12:18:00Z,27.4847,-97.3181,0.863,1111122 
TCOON,ioos:station:TCOON:013:1,2017-03-12T13:18:00Z,27.4847,-97.3181,0.861,1111122 
TCOON,ioos:station:TCOON:013:1,2017-03-12T14:18:00Z,27.4847,-97.3181,0.879,1111122 
TCOON,ioos:station:TCOON:013:1,2017-03-12T15:18:00Z,27.4847,-97.3181,0.865,1111122 
TCOON,ioos:station:TCOON:013:1,2017-03-12T16:18:00Z,27.4847,-97.3181,0.86,1111122 
TCOON,ioos:station:TCOON:013:1,2017-03-12T17:18:00Z,27.4847,-97.3181,0.858,1111122 
TCOON,ioos:station:TCOON:013:1,2017-03-12T18:18:00Z,27.4847,-97.3181,0.859,1111122 
TCOON,ioos:station:TCOON:013:1,2017-03-12T19:18:00Z,27.4847,-97.3181,0.852,1111122 
TCOON,ioos:station:TCOON:013:1,2017-03-12T20:18:00Z,27.4847,-97.3181,0.845,1111122 
TCOON,ioos:station:TCOON:013:1,2017-03-12T21:18:00Z,27.4847,-97.3181,0.845,1111122 
TCOON,ioos:station:TCOON:013:1,2017-03-12T22:18:00Z,27.4847,-97.3181,0.843,1111122 
TCOON,ioos:station:TCOON:013:1,2017-03-12T23:18:00Z,27.4847,-97.3181,0.836,1111122 
TCOON,ioos:station:TCOON:013:1,2017-03-13T00:18:00Z,27.4847,-97.3181,0.836,1111122 
TCOON,ioos:station:TCOON:013:1,2017-03-13T01:18:00Z,27.4847,-97.3181,0.837,1111122 
TCOON,ioos:station:TCOON:013:1,2017-03-13T02:18:00Z,27.4847,-97.3181,0.845,1111122 
TCOON,ioos:station:TCOON:013:1,2017-03-13T03:18:00Z,27.4847,-97.3181,0.848,1111122 
TCOON,ioos:station:TCOON:013:1,2017-03-13T04:18:00Z,27.4847,-97.3181,0.849,1111122 
TCOON,ioos:station:TCOON:013:1,2017-03-13T05:18:00Z,27.4847,-97.3181,0.851,1111122 
TCOON,ioos:station:TCOON:013:1,2017-03-13T06:18:00Z,27.4847,-97.3181,0.851,1111122 
TCOON,ioos:station:TCOON:013:1,2017-03-13T07:18:00Z,27.4847,-97.3181,0.854,1111122 
TCOON,ioos:station:TCOON:013:1,2017-03-13T08:18:00Z,27.4847,-97.3181,0.857,1111122 
TCOON,ioos:station:TCOON:013:1,2017-03-13T09:18:00Z,27.4847,-97.3181,0.859,1111122 
TCOON,ioos:station:TCOON:013:1,2017-03-13T10:18:00Z,27.4847,-97.3181,0.859,1111122 
TCOON,ioos:station:TCOON:013:1,2017-03-13T11:18:00Z,27.4847,-97.3181,0.855,1111122 
TCOON,ioos:station:TCOON:013:1,2017-03-13T12:18:00Z,27.4847,-97.3181,0.854,1111122 
TCOON,ioos:station:TCOON:013:1,2017-03-13T13:18:00Z,27.4847,-97.3181,0.863,1111122 
TCOON,ioos:station:TCOON:013:1,2017-03-13T14:18:00Z,27.4847,-97.3181,0.87,1111122 
TCOON,ioos:station:TCOON:013:1,2017-03-13T15:18:00Z,27.4847,-97.3181,0.872,1111122 
TCOON,ioos:station:TCOON:013:1,2017-03-13T16:18:00Z,27.4847,-97.3181,0.878,1111122 
TCOON,ioos:station:TCOON:013:1,2017-03-13T17:18:00Z,27.4847,-97.3181,0.878,1111122 
TCOON,ioos:station:TCOON:013:1,2017-03-13T18:18:00Z,27.4847,-97.3181,0.88,1111122 
TCOON,ioos:station:TCOON:013:1,2017-03-13T19:30:00Z,27.4847,-97.3181,0.879,1111122 
TCOON,ioos:station:TCOON:013:1,2017-03-13T20:18:00Z,27.4847,-97.3181,0.876,1111122 
TCOON,ioos:station:TCOON:013:1,2017-03-13T21:18:00Z,27.4847,-97.3181,0.876,1111122 
TCOON,ioos:station:TCOON:013:1,2017-03-13T22:18:00Z,27.4847,-97.3181,0.862,1111122 
TCOON,ioos:station:TCOON:013:1,2017-03-13T23:18:00Z,27.4847,-97.3181,0.865,1111122 
TCOON,ioos:station:TCOON:013:1,2017-03-14T00:18:00Z,27.4847,-97.3181,0.863,1111122 
TCOON,ioos:station:TCOON:013:1,2017-03-14T01:18:00Z,27.4847,-97.3181,0.861,1111122 
TCOON,ioos:station:TCOON:013:1,2017-03-14T02:18:00Z,27.4847,-97.3181,0.86,1111122 
TCOON,ioos:station:TCOON:013:1,2017-03-14T03:18:00Z,27.4847,-97.3181,0.858,1111122 
TCOON,ioos:station:TCOON:013:1,2017-03-14T04:18:00Z,27.4847,-97.3181,0.862,1111122 
TCOON,ioos:station:TCOON:013:1,2017-03-14T05:18:00Z,27.4847,-97.3181,0.859,1111122 
TCOON,ioos:station:TCOON:013:1,2017-03-14T06:18:00Z,27.4847,-97.3181,0.855,1111122 
TCOON,ioos:station:TCOON:013:1,2017-03-14T07:18:00Z,27.4847,-97.3181,0.851,1111122 
TCOON,ioos:station:TCOON:013:1,2017-03-14T08:18:00Z,27.4847,-97.3181,0.85,1111122 
TCOON,ioos:station:TCOON:013:1,2017-03-14T09:18:00Z,27.4847,-97.3181,0.848,1111122 
TCOON,ioos:station:TCOON:013:1,2017-03-14T10:18:00Z,27.4847,-97.3181,0.844,1111122 
TCOON,ioos:station:TCOON:013:1,2017-03-14T11:18:00Z,27.4847,-97.3181,0.843,1111122 
TCOON,ioos:station:TCOON:013:1,2017-03-14T12:18:00Z,27.4847,-97.3181,0.839,1111122 
TCOON,ioos:station:TCOON:013:1,2017-03-14T13:18:00Z,27.4847,-97.3181,0.842,1111122 
TCOON,ioos:station:TCOON:013:1,2017-03-14T14:18:00Z,27.4847,-97.3181,0.846,1111122 
TCOON,ioos:station:TCOON:013:1,2017-03-14T15:18:00Z,27.4847,-97.3181,0.84,1111122 
TCOON,ioos:station:TCOON:013:1,2017-03-14T16:18:00Z,27.4847,-97.3181,0.84,1111122 
TCOON,ioos:station:TCOON:013:1,2017-03-14T17:18:00Z,27.4847,-97.3181,0.839,1111122 
TCOON,ioos:station:TCOON:013:1,2017-03-14T18:18:00Z,27.4847,-97.3181,0.833,1111122 
TCOON,ioos:station:TCOON:013:1,2017-03-14T19:18:00Z,27.4847,-97.3181,0.827,1111122 
TCOON,ioos:station:TCOON:013:1,2017-03-14T20:18:00Z,27.4847,-97.3181,0.823,1111122 
TCOON,ioos:station:TCOON:013:1,2017-03-14T21:18:00Z,27.4847,-97.3181,0.817,1111122 
TCOON,ioos:station:TCOON:013:1,2017-03-14T22:18:00Z,27.4847,-97.3181,0.817,1111122 
TCOON,ioos:station:TCOON:013:1,2017-03-14T23:18:00Z,27.4847,-97.3181,0.821,1111122 
TCOON,ioos:station:TCOON:013:1,2017-03-15T00:18:00Z,27.4847,-97.3181,0.814,1111122 